TIME,DELAY(SENSOR),PRES,OXYGEN,RAWTEMP,T(OPTODE),TCPHASE,FLUOR,BETA(BETA700),BETA(BETA412),BETA(BETA440),CDOM,C(CSC),ED(ED412.20),ED(ED444.00),ED(ED489.60),ED(ED554.30),LU(LU412.10),LU(LU443.90),LU(LU489.70),LU(LU554.70),COMP,TILTX,TILTY,CHECK
1374293428,5811,870.7500000000000000,29.9258098602294920,565.4552001953125000,4.3167061805725100,57.1567802429199200,55,99,98,77,80,15622,0,0,0,0,2147118985,2147768749,2147569362,2147568237,1439,2,13,60424
1374376205,5810,1016.8499755859375000,31.3241405487060550,578.3348999023438000,3.9162518978118896,57.0553092956543000,55,97,99,78,82,15604,0,0,0,0,2147120521,2147770944,2147572370,2147568621,18,2,13,1126
1374379805,5812,1025.9799804687500000,28.6091003417968750,578.1198730468750000,3.9229490756988525,57.4978294372558600,55,97,99,77,80,15611,0,0,0,0,2147119780,2147769380,2147571757,2147568886,230,2,13,52533
1374383405,5810,1021.0999755859375000,28.0329799652099600,578.0963134765625000,3.9236829280853270,57.5926399230957000,54,97,99,77,81,15612,0,0,0,0,2147125284,2147772141,2147570038,2147565312,458,3,13,4321
1374387005,5809,1022.6799926757812000,28.5329494476318360,578.2125244140625000,3.9200649261474610,57.5156707763671900,54,98,98,78,81,15610,0,0,0,0,2147119862,2147767780,2147572123,2147566555,537,2,13,24745
1374390605,5810,1021.9600219726562000,24.7448692321777340,578.5479125976562000,3.9096159934997560,58.1705398559570300,55,96,98,77,80,15614,0,0,0,0,2147120694,2147766125,2147573440,2147566509,105,2,13,54161
1374394205,5809,1025.5200195312500000,26.4418296813964840,578.2874755859375000,3.9177279472351074,57.8721313476562500,55,97,99,77,81,15608,0,0,0,0,2147118326,2147766409,2147571126,2147567771,314,2,13,17746
1374397805,5809,1027.7500000000000000,32.4974784851074200,577.5374145507812000,3.9410901069641113,56.8581581115722660,55,96,99,76,82,15609,0,0,0,0,2147120402,2147768795,2147571794,2147567378,3584,2,13,19447
1374401405,5810,1028.5000000000000000,31.3300094604492200,576.9412231445312000,3.9596519470214844,57.0419387817382800,55,96,100,78,81,15610,0,0,0,0,2147121536,2147764681,2147569828,2147567350,3436,3,13,3946
1374405005,5811,1032.1899414062500000,30.3618793487548830,577.3342895507812000,3.9474139213562010,57.2032012939453100,54,96,100,77,80,15607,0,0,0,0,2147123620,2147767616,2147575524,2147567277,131,3,13,19230
1374408605,5810,1031.5699462890625000,27.5769691467285160,576.9943847656250000,3.9579958915710450,57.6598396301269500,55,95,100,77,81,15609,0,0,0,0,2147120329,2147764864,2147574592,2147568804,72,2,13,57054
1374412205,5808,1026.3000488281250000,32.7540702819824200,577.2075195312500000,3.9513649940490723,56.8123207092285160,55,97,99,78,80,15611,0,0,0,0,2147120100,2147765385,2147575744,2147569609,159,3,13,30998
1374415805,5810,1032.3399658203125000,31.2287902832031250,577.1989746093750000,3.9516279697418213,57.0541610717773440,54,97,99,79,81,15605,0,0,0,0,2147120612,2147768576,2147574509,2147568228,201,3,13,56841
1374419405,5810,1031.8800048828125000,25.5091209411621100,577.3596191406250000,3.9466269016265870,58.0195198059082000,55,96,98,78,80,15605,0,0,0,0,2147119524,2147764726,2147570761,2147568283,81,3,13,17015
1374423005,5810,1030.0799560546875000,25.2405490875244140,577.4655761718750000,3.9433250427246094,58.0703010559082000,55,97,99,77,82,15608,0,0,0,0,2147119405,2147768850,2147570852,2147563721,375,2,13,50260
1374426605,5808,1021.4000244140625000,28.9686908721923830,577.2675170898438000,3.9494929313659670,57.4349784851074200,55,98,99,77,80,15603,0,0,0,0,2147119030,2147769700,2147572013,2147568859,296,2,13,50885
1374430205,5809,1020.0300292968750000,29.9181594848632800,577.3967285156250000,3.9454710483551025,57.2726707458496100,55,96,99,76,81,15607,0,0,0,0,2147116900,2147771090,2147567488,2147569197,209,2,13,50174
1374433805,5808,1023.2700195312500000,33.9209785461425800,577.4379272460938000,3.9441890716552734,56.6296691894531250,54,96,100,78,80,15604,0,0,0,0,2147121554,2147769216,2147571017,2147567149,491,3,13,13597
1374436856,5813,1020.7600097656250000,33.6396293640136700,577.2899169921875000,3.9487988948822020,56.6730003356933600,53,97,99,78,82,15606,0,0,0,0,2147121179,2147771648,2147572342,2147565924,436,2,13,35253
1374465508,5807,880.5900268554688000,30.2099609375000000,566.2586059570312000,4.2917671203613280,57.1189498901367200,54,98,99,77,81,15616,0,0,0,0,2147116873,2147767936,2147568740,2147569572,381,3,13,3999
1374537486,5807,994.3200073242188000,29.0287799835205080,575.7393188476562000,3.9970679283142090,57.4118690490722660,55,97,99,78,81,15602,0,0,0,0,2147118390,2147765942,2147571218,2147567259,447,3,13,10218
1374541086,5813,996.8900146484375000,28.1067008972167970,575.8638916015625000,3.9931910037994385,57.5639991760253900,55,97,99,78,80,15605,0,0,0,0,2147118930,2147767680,2147572096,2147568539,43,2,13,3110
1374544686,5809,995.7500000000000000,30.6215496063232420,575.5980834960938000,4.0014648437500000,57.1397209167480500,55,101,99,79,81,15601,0,0,0,0,2147117824,2147767158,2147573257,2147566436,3388,2,13,1252
1374548286,5812,1000.3300170898438000,21.8295707702636720,575.4608764648438000,4.0057330131530760,58.6621589660644500,55,97,103,77,82,15606,0,0,0,0,2147121828,2147773001,2147571355,2147569572,90,2,13,26964
1374551886,5810,997.6900024414062000,28.9242706298828120,575.5507812500000000,4.0029339790344240,57.4229888916015600,54,96,100,76,82,15604,0,0,0,0,2147118957,2147767862,2147574838,2147566838,47,2,13,24463
1374555486,5812,1000.3800048828125000,24.5145797729492200,575.4741821289062000,4.0053181648254395,58.1800308227539060,55,96,100,76,80,15605,0,0,0,0,2147117814,2147767497,2147575030,2147569316,25,2,13,13518
1374637406,5809,879.7000122070312000,28.5964794158935550,564.8046875000000000,4.3368930816650390,57.3805618286132800,55,97,98,77,81,15619,0,0,0,0,2147118454,2147769170,2147572909,2147567488,460,2,13,4318
1374691383,5809,992.7700195312500000,28.6849098205566400,575.6163940429688000,4.0008950233459470,57.4614601135253900,54,97,98,78,81,15611,0,0,0,0,2147119762,2147772973,2147575524,2147572553,143,2,13,11490
1374694983,5808,993.2000122070312000,18.0496902465820300,575.3461914062500000,4.0093040466308590,59.3788299560546900,55,96,99,79,81,15609,0,0,0,0,2147121773,2147773257,2147575762,2147565796,176,2,13,8875
1374698583,5810,993.2800292968750000,25.3483200073242200,575.4946899414062000,4.0046830177307130,58.0383300781250000,55,106,98,77,81,15610,0,0,0,0,2147117677,2147773750,2147574454,2147567753,3484,2,13,39835
1374702183,5809,990.8900146484375000,28.8153400421142580,575.5825195312500000,4.0019469261169430,57.4400901794433600,55,97,98,78,82,15609,0,0,0,0,2147118729,2147771757,2147574052,2147570505,3404,2,13,5975
1374705783,5809,992.3200073242188000,31.9892005920410160,575.7551879882812000,3.9965720176696777,56.9203910827636700,55,96,100,78,80,15609,0,0,0,0,2147118985,2147767414,2147570642,2147571200,292,2,13,57102
1374709383,5809,991.1400146484375000,31.6938991546630860,575.5537109375000000,4.0028457641601560,56.9694519042968750,54,98,99,77,81,15609,0,0,0,0,2147120987,2147768219,2147572160,2147566226,216,2,13,27716
1374782456,5810,993.4899902343750000,32.8439788818359400,577.3745117187500000,3.9461610317230225,56.7995910644531250,54,99,99,77,81,15603,0,0,0,0,2147118226,2147767094,2147575515,2147569709,3530,2,13,16227
1374810211,5811,878.4199829101562000,28.9516696929931640,564.6699218750000000,4.3410778045654300,57.3166618347168000,55,99,99,78,80,15613,0,0,0,0,2147121590,2147765028,2147572498,2147571657,2350,2,13,18187
1374853389,5809,989.3400268554688000,27.4309806823730470,573.8236083984375000,4.0566787719726560,57.6621208190918000,55,97,99,78,82,15602,0,0,0,0,2147119277,2147771849,2147573220,2147571181,99,2,13,7865
1374860589,5810,981.5100097656250000,30.3554306030273440,575.1746215820312000,4.0146431922912600,57.1846389770507800,55,97,99,78,81,15603,0,0,0,0,2147119030,2147770880,2147576402,2147569600,797,2,13,10035
1374864189,5811,989.0800170898438000,26.2195491790771500,575.3126831054688000,4.0103468894958500,57.8838996887207000,55,97,99,77,81,15601,0,0,0,0,2147118162,2147775826,2147571117,2147567990,165,2,13,60538
1374867789,5810,990.5000000000000000,30.5071601867675780,575.0093994140625000,4.0197849273681640,57.1525192260742200,54,103,99,78,82,15601,0,0,0,0,2147119049,2147767104,2147570404,2147565842,3028,2,13,30179
1374871389,5810,985.9600219726562000,30.9957809448242200,575.4296264648438000,4.0067081451416020,57.0763397216796900,56,99,98,77,81,15600,0,0,0,0,2147119936,2147771017,2147574701,2147564233,143,2,13,13790
1374874989,5811,986.9000244140625000,26.4124908447265620,575.5161743164062000,4.0040111541748050,57.8468017578125000,55,98,100,79,81,15603,0,0,0,0,2147117878,2147769316,2147572461,2147566244,3261,2,13,63536
1374878589,5812,990.7199707031250000,31.7658500671386720,574.9434204101562000,4.0218391418457030,56.9457206726074200,54,97,100,78,81,15602,0,0,0,0,2147117138,2147765659,2147576576,2147568612,33,3,13,60286
1374882189,5809,991.2899780273438000,29.9841194152832030,575.5338745117188000,4.0034642219543460,57.2505989074707000,56,98,98,78,80,15601,0,0,0,0,2147117376,2147770038,2147572699,2147567268,116,3,13,23155
1374892989,5811,994.1400146484375000,30.3963699340820300,574.8348999023438000,4.0252151489257810,57.1731681823730500,55,97,100,78,81,15590,0,0,0,0,2147120438,2147772059,2147572315,2147568960,210,3,13,48885
1374983260,5807,874.5999755859375000,29.4194602966308600,565.6271972656250000,4.3113670349121090,57.2509193420410160,56,99,99,78,82,15611,0,0,0,0,2147115172,2147769472,2147571282,2147568137,2994,2,13,63557
1375015638,5812,1015.2700195312500000,22.4680004119873050,575.5701293945312000,4.0023369789123535,58.5453987121582000,56,97,99,78,80,15606,0,0,0,0,2147121362,2147769280,2147572050,2147566244,362,2,13,44079
1375019238,5810,1010.9199829101562000,25.9174900054931640,575.9940185546875000,3.9891409873962402,57.9421310424804700,56,97,98,78,82,15606,0,0,0,0,2147117312,2147764800,2147573778,2147567506,493,2,13,26244
1375022838,5808,1010.2199707031250000,31.8800296783447270,576.7410888671875000,3.9658849239349365,56.9457588195800800,54,97,100,77,81,15605,0,0,0,0,2147119387,2147768630,2147572882,2147566784,3556,2,13,13974
1375026438,5810,1015.8400268554688000,32.9544792175293000,577.1345825195312000,3.9536321163177490,56.7727088928222660,55,98,99,78,82,15603,0,0,0,0,2147118006,2147771739,2147573760,2147567872,16,2,13,8408
1375030038,5812,1014.9299926757812000,31.6704597473144530,576.3491210937500000,3.9780879020690920,56.9747390747070300,55,98,99,77,81,15604,0,0,0,0,2147116864,2147770422,2147570422,2147568676,3212,2,13,16463
1375033638,5809,1017.9299926757812000,30.3591403961181640,576.6057739257812000,3.9700949192047120,57.1896286010742200,55,98,100,77,82,15604,0,0,0,0,2147123318,2147765842,2147571510,2147568841,196,2,13,22945
1375037238,5810,1013.1199951171875000,31.5360107421875000,576.8367919921875000,3.9629039764404297,57.0015411376953100,55,101,99,78,81,15603,0,0,0,0,2147118683,2147768502,2147575872,2147569353,435,3,13,3218
1375040838,5808,1018.8400268554688000,26.7910709381103500,577.0070190429688000,3.9576048851013184,57.8020896911621100,55,97,98,78,82,15605,0,0,0,0,2147118592,2147765376,2147572434,2147568896,176,2,13,18425
1375044438,5812,1020.1500244140625000,23.0813407897949220,576.0258789062500000,3.9881479740142822,58.4454307556152340,55,96,99,77,82,15599,0,0,0,0,2147118464,2147772434,2147569188,2147566912,99,3,13,20318
1375048038,5810,1021.2999877929688000,29.7374000549316400,575.8795776367188000,3.9927020072937010,57.2912216186523440,55,104,99,78,81,15602,0,0,0,0,2147117778,2147769481,2147574162,2147568256,3319,3,13,24800
1375051638,5808,1022.2000122070312000,29.2824592590332030,575.9926757812500000,3.9891829490661620,57.3711585998535160,55,97,100,78,82,15600,0,0,0,0,2147121462,2147767725,2147570514,2147567414,252,3,13,60829
1375055238,5812,1019.6500244140625000,30.6000709533691400,575.9526977539062000,3.9904270172119140,57.1451988220214840,55,96,99,78,80,15602,0,0,0,0,2147120841,2147769170,2147571648,2147568018,450,2,13,6573
1375058838,5811,1013.9600219726562000,26.7118492126464840,577.4395141601562000,3.9441380500793457,57.8115501403808600,54,96,100,78,81,15603,0,0,0,0,2147119533,2147769152,2147571392,2147567725,279,3,13,31804
1375062438,5807,1014.6599731445312000,22.2673301696777340,577.7092895507812000,3.9357380867004395,58.6051483154296900,54,96,100,78,81,15603,0,0,0,0,2147118528,2147772836,2147572306,2147568374,181,3,13,65059
1375066038,5808,1018.7899780273438000,28.9264392852783200,577.4514160156250000,3.9437689781188965,57.4390602111816400,54,98,100,78,81,15600,0,0,0,0,2147119040,2147773430,2147570029,2147567853,290,2,13,32890
1375069638,5809,1014.3900146484375000,22.9259204864501950,577.4138183593750000,3.9449388980865480,58.4793205261230500,54,99,99,77,80,15601,0,0,0,0,2147119533,2147771501,2147573833,2147568484,94,2,13,19418
1375080438,5808,1018.2500000000000000,33.9491806030273440,577.5170288085938000,3.9417269229888916,56.6255989074707000,55,96,99,78,81,15599,0,0,0,0,2147119762,2147769627,2147573184,2147566070,164,2,13,3556
1375084038,5809,1015.7500000000000000,29.1724300384521500,577.4517211914062000,3.9437580108642580,57.4020614624023440,55,96,99,77,82,15600,0,0,0,0,2147121179,2147768566,2147571648,2147566482,222,2,13,33081
1375087638,5807,1025.0000000000000000,34.7762794494628900,577.8220214843750000,3.9322259426116943,56.4995002746582000,55,96,97,78,82,15598,0,0,0,0,2147120329,2147768978,2147572114,2147568036,3168,2,13,7414
1375091238,5810,1029.9300537109375000,34.3118896484375000,576.3302001953125000,3.9786760807037354,56.5560302734375000,55,98,99,78,81,15596,0,0,0,0,2147118134,2147769206,2147571766,2147564818,752,2,13,33987
1375094838,5811,1031.0500488281250000,23.0634403228759770,576.0656127929688000,3.9869139194488525,58.4517097473144500,55,97,98,77,81,15597,0,0,0,0,2147117769,2147768530,2147575716,2147569618,237,3,13,16979
1375098438,5810,1024.9499511718750000,25.7416000366210940,575.6522216796875000,3.9997808933258057,57.9695587158203100,55,98,100,77,81,15595,0,0,0,0,2147122212,2147769280,2147570304,2147569170,564,2,13,52548
1375102038,5808,1021.8699951171875000,31.9939308166503900,577.3314819335938000,3.9474999904632570,56.9362182617187500,56,97,100,78,83,15598,0,0,0,0,2147115126,2147768411,2147574299,2147569453,3330,2,13,22834
1375105638,5811,1018.2000122070312000,34.2127990722656250,577.9428710937500000,3.9284629821777344,56.5818901062011700,55,97,99,79,81,15597,0,0,0,0,2147118875,2147769234,2147571849,2147568219,3144,2,13,39504
1375109238,5807,1022.1400146484375000,33.0951995849609400,578.2462158203125000,3.9190158843994140,56.7686080932617200,55,97,99,78,83,15594,0,0,0,0,2147119387,2147770313,2147575222,2147567222,203,2,13,27455
1375112838,5808,1020.1799926757812000,27.9498901367187500,577.9600830078125000,3.9279270172119140,57.6083412170410160,55,108,98,77,80,15593,0,0,0,0,2147120027,2147769810,2147579666,2147569380,3533,2,13,13838
1375116438,5810,1018.3800048828125000,27.8437309265136720,578.2432861328125000,3.9191040992736816,57.6299705505371100,55,99,100,78,80,15591,0,0,0,0,2147117376,2147763392,2147575488,2147569106,174,2,13,41415
1375120038,5812,1025.1500244140625000,31.5205192565917970,577.5717773437500000,3.9400179386138916,57.0164489746093750,55,98,98,78,81,15588,0,0,0,0,2147115693,2147768246,2147570084,2147569947,10,3,13,52072
1375128056,5809,1025.7700195312500000,27.2040195465087900,577.4329833984375000,3.9443399906158447,57.7304801940918000,55,99,99,77,81,15585,0,0,0,0,2147119094,2147769490,2147577636,2147569837,34,2,12,49734
1375155860,5809,864.4400024414062000,29.8387203216552730,566.0839843750000000,4.2971858978271480,57.1852798461914060,55,98,98,78,81,15609,0,0,0,0,2147119195,2147772022,2147574518,2147569115,114,2,13,28486
1375170237,5811,1000.0000000000000000,27.6793994903564450,574.9675903320312000,4.0210862159729000,57.6289405822753900,56,98,99,77,82,15607,0,0,0,0,2147119433,2147771273,2147573248,2147565421,78,2,13,16314
1375173837,5810,1006.1799926757812000,29.8159103393554700,575.2387695312500000,4.0126438140869140,57.2740211486816400,54,98,98,77,80,15606,0,0,0,0,2147117412,2147768649,2147570285,2147568018,58,2,13,60534
1375177437,5809,1008.0100097656250000,23.2011203765869140,575.2855224609375000,4.0111942291259770,58.4193305969238300,55,96,99,77,82,15604,0,0,0,0,2147118427,2147767305,2147573028,2147567030,46,2,13,16745
1375181037,5808,1011.1099853515625000,24.4649791717529300,574.8906860351562000,4.0234789848327640,58.1821517944335940,54,96,98,78,80,15602,0,0,0,0,2147118244,2147768694,2147574390,2147568475,190,2,13,57000
1375184637,5809,1008.6599731445312000,25.7289791107177730,575.5347290039062000,4.0034370422363280,57.9675216674804700,55,98,100,78,80,15603,0,0,0,0,2147120658,2147771282,2147574445,2147567698,3511,2,13,29149
1375188237,5810,1009.5399780273438000,30.2577495574951170,576.7432250976562000,3.9658200740814210,57.2156982421875000,55,97,99,77,81,15603,0,0,0,0,2147119652,2147768036,2147577910,2147566043,569,2,13,45142
1375191837,5810,1007.8800048828125000,30.3854007720947270,575.8604125976562000,3.9933009147644043,57.1855010986328100,55,96,99,79,81,15598,0,0,0,0,2147117924,2147767149,2147571117,2147566272,205,2,13,19240
1375195437,5811,1006.7800292968750000,28.8660793304443360,576.7462158203125000,3.9657249450683594,57.4467315673828100,55,96,99,78,81,15602,0,0,0,0,2147119168,2147772452,2147571072,2147564955,3463,2,13,47894
1375199037,5809,1008.0900268554688000,26.2164707183837900,577.5130004882812000,3.9418489933013916,57.8996086120605500,55,97,98,77,82,15601,0,0,0,0,2147119451,2147773412,2147574555,2147569417,491,2,13,38254
1375202637,5810,1005.9600219726562000,27.6548309326171880,577.5062866210938000,3.9420568943023680,57.6509399414062500,55,97,99,78,81,15602,0,0,0,0,2147117696,2147767908,2147572754,2147569252,295,2,13,16925
1375206237,5812,1015.2800292968750000,33.6439704895019500,577.3214721679688000,3.9478108882904053,56.6734504699707000,56,96,98,78,81,15604,0,0,0,0,2147119122,2147770413,2147574336,2147566427,2851,2,13,19954
1375209837,5810,1010.5399780273438000,26.6658306121826170,577.3867797851562000,3.9457778930664062,57.8260192871093750,55,97,99,77,82,15600,0,0,0,0,2147117129,2147768365,2147574710,2147566098,3380,3,13,6121
1375213437,5809,1013.3200073242188000,29.9506797790527340,576.4121704101562000,3.9761240482330322,57.2613983154296900,55,96,99,78,82,15598,0,0,0,0,2147118482,2147765394,2147572909,2147564242,241,2,13,34996
1375217037,5811,1014.4799804687500000,23.2928504943847660,576.6298217773438000,3.9693510532379150,58.4079017639160160,55,98,99,77,81,15599,0,0,0,0,2147118162,2147768036,2147575323,2147566884,18,2,13,22240
1375220637,5808,1016.7899780273438000,31.0357494354248050,576.1195068359375000,3.9852330684661865,57.0799789428710940,55,105,100,79,82,15596,0,0,0,0,2147118582,2147770569,2147571501,2147569005,1901,2,13,21987
1375224237,5810,1023.7299804687500000,33.7263488769531250,575.7368774414062000,3.9971449375152590,56.6401710510253900,55,98,101,77,81,15597,0,0,0,0,2147116324,2147768676,2147573696,2147564845,7,2,13,20950
1375227837,5809,1017.3900146484375000,25.1795291900634770,575.4332275390625000,4.0065979957580570,58.0657005310058600,56,97,99,77,81,15596,0,0,0,0,2147119286,2147766985,2147575085,2147570121,347,2,13,44274
1375231437,5811,1019.1300048828125000,23.6235694885253900,575.8784790039062000,3.9927370548248290,58.3433494567871100,56,96,99,78,80,15593,0,0,0,0,2147118756,2147769956,2147574454,2147565366,6,2,13,49142
1375235037,5810,1014.3400268554688000,28.4012794494628900,576.4893798828125000,3.9737210273742676,57.5174598693847660,55,96,117,76,81,15596,0,0,0,0,2147116041,2147763785,2147575177,2147569819,302,2,13,44764
1375238637,5811,1002.1199951171875000,32.6976585388183600,578.3989257812500000,3.9142589569091797,56.8293991088867200,54,97,99,78,81,15593,0,0,0,0,2147119122,2147764992,2147572608,2147565330,105,2,13,21895
1375242237,5812,1011.7399902343750000,29.2708892822265620,577.8732299804688000,3.9306340217590330,57.3870582580566400,54,97,99,77,80,15595,0,0,0,0,2147119826,2147765129,2147575853,2147570669,82,2,13,8835
1375245837,5810,1007.5900268554688000,34.6056709289550800,578.1390991210938000,3.9223520755767822,56.5225982666015600,54,99,98,78,81,15596,0,0,0,0,2147118665,2147773750,2147573403,2147566875,211,2,13,18144
1375249437,5810,1012.1400146484375000,32.7126083374023440,577.5841064453125000,3.9396359920501710,56.8245697021484400,54,98,99,78,81,15594,0,0,0,0,2147119451,2147765659,2147572644,2147564845,348,2,13,26345
1375253037,5812,1022.3800048828125000,34.9109611511230500,576.3743286132812000,3.9773030281066895,56.4582405090332000,55,97,100,78,80,15595,0,0,0,0,2147118875,2147766518,2147571574,2147568896,2840,2,13,60498
1375256637,5811,1025.2199707031250000,32.9137687683105500,575.7429199218750000,3.9969561100006104,56.7728996276855500,55,100,100,77,81,15594,0,0,0,0,2147117449,2147766180,2147578916,2147567451,49,2,13,22675
1375260237,5809,1022.0499877929688000,29.6055297851562500,576.3032836914062000,3.9795110225677490,57.3190803527832000,55,98,100,78,81,15592,0,0,0,0,2147119268,2147775670,2147574848,2147567744,584,2,13,21765
1375263837,5809,1023.5900268554688000,33.5815200805664060,576.2509155273438000,3.9811439514160156,56.6662788391113300,54,97,99,78,82,15590,0,0,0,0,2147118912,2147768832,2147574116,2147563849,1946,2,13,48112
1375267437,5810,1022.9500122070312000,30.1881198883056640,575.6864013671875000,3.9987161159515380,57.2113685607910160,54,97,99,78,81,15591,0,0,0,0,2147119414,2147768347,2147573796,2147568667,2951,2,13,7773
1375271037,5809,1021.1199951171875000,28.6113796234130860,575.9541015625000000,3.9903829097747803,57.4740104675293000,55,97,99,78,81,15588,0,0,0,0,2147118592,2147768630,2147568630,2147567561,301,2,13,50616
1375274637,5809,1019.3900146484375000,27.5628395080566400,576.0963134765625000,3.9859559535980225,57.6546401977539060,55,97,98,77,82,15588,0,0,0,0,2147120621,2147772964,2147566921,2147565659,3381,2,13,8978
1375278237,5809,1025.5500488281250000,34.2154388427734400,576.0886230468750000,3.9861950874328613,56.5705909729003900,55,97,98,78,82,15590,0,0,0,0,2147119634,2147768914,2147572690,2147567625,119,2,13,52446
1375281837,5808,1022.7500000000000000,27.6354103088378900,576.1190185546875000,3.9852519035339355,57.6467208862304700,55,97,99,77,81,15588,0,0,0,0,2147119542,2147769892,2147570770,2147567826,81,2,13,50101
1375285437,5809,1016.0700073242188000,29.9745292663574220,576.9503784179688000,3.9593660831451416,57.2627410888671900,55,95,99,76,81,15588,0,0,0,0,2147117220,2147764589,2147576374,2147565924,596,2,13,29563
1375289037,5810,1009.5300292968750000,31.6205692291259770,578.2164916992188000,3.9199409484863280,57.0042610168457000,54,98,99,78,81,15586,0,0,0,0,2147121033,2147767963,2147575241,2147565302,3579,2,13,49210
1375292637,5811,1010.5399780273438000,32.0352706909179700,578.5595092773438000,3.9092559814453125,56.9351387023925800,55,97,99,77,81,15585,0,0,0,0,2147120630,2147770258,2147575442,2147568484,524,2,13,7180
1375296237,5810,1016.4699707031250000,31.4647903442382800,578.2659301757812000,3.9184019565582275,57.0251693725585940,54,110,100,77,81,15588,0,0,0,0,2147117549,2147769298,2147572224,2147568822,286,2,13,38075
1375299837,5809,1015.9600219726562000,29.9818801879882800,578.4973754882812000,3.9111919403076170,57.2727088928222660,55,98,100,77,81,15586,0,0,0,0,2147121088,2147765888,2147574409,2147567332,3538,2,13,14705
1375300857,5809,1014.8499755859375000,29.3852005004882800,578.5756835937500000,3.9087510108947754,57.3713111877441400,54,98,100,78,81,15586,0,0,0,0,2147118052,2147770057,2147574253,2147568155,592,2,13,50004
1375328482,5810,873.8400268554688000,29.7275390625000000,565.6538696289062000,4.3105387687683105,57.1992301940918000,55,99,98,77,79,15608,0,0,0,0,2147119405,2147771538,2147576466,2147569133,2999,2,13,45354
1375332078,5808,954.4000244140625000,31.6487598419189450,571.9063720703125000,4.1163039207458500,56.9332389831543000,54,97,99,78,80,15593,0,0,0,0,2147120192,2147771026,2147569974,2147569280,570,2,13,11424